Погода в Лебедяни

Россия / Липецкая область     53°01′13″N   39°07′52″E
темп.,
°C
ветер,
м/с
пор.,
м/с
влажн.,
%
обл.,
%
осадки,
мм/ч
давл.,
гПа
погр.,
м
13 апреля, вт
вт1300:00+11вюв4136997 0.0 1026230
03:00+10вюв4127487 0.0 1026199
06:00+8вюв4117367 0.0 1026184
09:00+13юв5105123 0.0 1026324
12:00+19юв69366 0.0 1025998
15:00+21юв8122578 0.0 10242087
18:00+19юв611330 0.0 1023406
21:00+15юв6144548 0.0 1024351
14 апреля, ср
ср1400:00+12юв51355100 0.0 1023289
03:00+10вюв41163100 0.0 1023197
06:00+9вюв4969100 0.0 1022154
09:00+13юв5954100 0.0 1021333
12:00+17юв6736100 0.0 1020867
15:00+19юв68290 0.0 10182049
18:00+18юв4733100 0.0 1017222
21:00+14вюв3545100 0.0 101869
15 апреля, чт
чт1500:00+12юв495686 0.0 1017189
03:00+10юв346194 0.0 101750
06:00+10вюв346596 0.0 101763
09:00+13в3554100 0.0 1016262
12:00+17в3443100 0.0 1015763
15:00+19в4639100 0.0 10141714
18:00+18вюв4843100 0.0 1013334
21:00
16 апреля, пт
пт1600:00+12ю1164100 0.0 101311
03:00+11ссв1175100 0.1 101319
06:00+10в3578100 0.0 101390
09:00+14вюв4663100 0.3 1014318
12:00+17вюв4650100 0.0 10141002
15:00+19в4741100 0.0 10142108
18:00+15ююз6766100 0.3 1014367
21:00+14св3362100 0.8 101660
17 апреля, сб
сб1700:00+11ссз368917 0.4 1016169
03:00+10всв6119070 0.4 1017462
06:00+9всв61090100 0.2 1018484
09:00+10всв7980100 0.3 1019653
12:00+14всв8964100 0.0 10191182
15:00+15всв9115694 0.0 10191393
18:00+14св811530 0.0 10201311
21:00+10всв814495 0.0 1022720